Location: Alafon
(8.4500°N, 4.2333°E)
Time: 01:07:08
(UTC+00:00)

Cosmos 2333 Rocket - Pass Details

Date: 05 July 2020
Orbit: 837 x 864 km, 70.8° (Epoch: 06 August)

Event Time Altitude Azimuth Distance (km) Brightness Sun altitude
Exits shadow 20:39:22 28° 1° (N) 1,535 3.7 -34.4°
Drops below altitude 10° 20:41:56 10° 9° (N) 2,459 4.9 -34.9°
Sets 20:44:24 0° 11° (NNE) 3,397 5.6 -35.4°
